Location: McFarlands Corners
(41.4117°N, 81.3382°W)
Time: 10:41:38
(UTC+00:00)

Courier 1B Rocket - Pass Details

Date: 19 February 2026
Orbit: 920 x 1201 km, 28.2° (Epoch: 10 March)

Event Time Altitude Azimuth Distance (km) Brightness Sun altitude
Rises 00:59:23 0° 235° (SW) 3,544 8.7 -22.5°
Reaches altitude 10° 01:02:30 10° 220° (SW) 2,612 7.7 -23.0°
Maximum altitude 01:07:13 23° 171° (S) 1,895 6.3 -23.9°
Enters shadow 01:07:58 22° 161° (SSE) 1,923 6.3 -24.1°
Drops below altitude 10° 01:12:06 10° 122° (ESE) 2,700 - -24.8°
Sets 01:15:23 0° 108° (ESE) 3,694 - -25.4°
